Location: Alpha Ridge Park
(39.3209°N, 76.9128°W)
Time: 15:01:18
(UTC-04:00)

BEESAT - Pass Details

Date: 05 July 2022
Orbit: 700 x 706 km, 98.6° (Epoch: 16 August)

Event Time Altitude Azimuth Distance (km) Brightness Sun altitude
Rises 22:27:21 0° 0° (N) 3,104 ? -17.0°
Reaches altitude 10° 22:29:54 10° 348° (NNW) 2,182 ? -17.3°
Maximum altitude 22:33:50 26° 293° (WNW) 1,371 ? -17.8°
Drops below altitude 10° 22:37:45 10° 237° (WSW) 2,172 ? -18.2°
Sets 22:40:18 0° 225° (SW) 3,087 ? -18.5°
